[[{"header":{"parameterUnit":"m.s-1","parameterCategory":1,"la1":30.2991,"la2":30.254,"lo1":-89.0895,"lo2":-89.0444,"dy":0.0017,"dx":0.0017,"nx":28,"ny":28,"refTime":"2023-08-04T09:00:00:Z","depth":0,"parameterNumber":2,"parameterNumberName":"U-component_of_WINDS"},"data":[0,0,0,0,0,0,0,0,0,0,0,0,0,0,0,0,0,0,0,0,0,0,0,0,0,0,0,0,0,0,0,0,0,0,0,0,0,0,0,0,0,0,0,0,0,0,0,0,0,0,0,0,0,0,0,0,0,0,0.6438,0.6439,0,0.6585,0.6587,0.6588,0.6616,0.6615,0.6614,0.6613,0.6767,0.6772,0.6777,0,0,0,0,0,0,0,0,0,0,0,0,0,0.6182,0.6186,0.6438,0.644,0.6441,0.6585,0.6587,0.6589,0.6617,0.6615,0.6614,0.6612,0.6766,0.6772,0.6778,0,0,0,0,0,0,0,0,0,0,0,0,0,0.6308,0.6188,0.6437,0.6472,0.6477,0.6584,0.6587,0.6589,0.6617,0.6615,0.6613,0.6612,0.6763,0.6771,0.6779,0.6863,0,0,0.6803,0.6806,0,0,0,0,0,0,0,0,0.63,0.6317,0.6465,0.647,0.6476,0.658,0.6553,0.6681,0.6617,0.6564,0.6613,0.6611,0.6707,0.6719,0.6751,0.687,0.6877,0.6803,0.6808,0.6812,0.6814,0,0,0,0,0,0,0,0.6292,0.6311,0.6496,0.6468,0.6474,0.6481,0.6497,0.6578,0.6644,0.6568,0.6571,0.6588,0.6709,0.6743,0.6755,0.6879,0.6803,0.681,0.6815,0.6818,0.7073,0.7074,0,0,0,0,0,0,0.6276,0.6303,0.6491,0.6501,0.6382,0.6487,0.6505,0.6549,0.6643,0.6655,0.6589,0.6588,0.6731,0.6745,0.676,0.6863,0.6811,0.6819,0.6823,0.707,0.7073,0.7075,0,0,0,0,0,0,0.6271,0.6293,0.6486,0.6403,0.6428,0.6494,0.6542,0.6553,0.6586,0.6658,0.667,0.6611,0.673,0.6749,0.6836,0.6869,0.6822,0.6829,0.7068,0.7071,0.7074,0.7071,0,0,0,0,0,0,0.6263,0.6291,0.6323,0.6403,0.6432,0.6559,0.6544,0.6557,0.6599,0.66,0.6683,0.6695,0.673,0.6824,0.6844,0.6879,0.6836,0.7065,0.7069,0.7073,0.7069,0.7074,0.7078,0,0,0,0,0,0.6254,0.6318,0.6325,0.6347,0.6474,0.6561,0.6577,0.6616,0.6602,0.6635,0.6681,0.6692,0.6862,0.6833,0.6856,0.6893,0.7064,0.7068,0.7073,0.7067,0.7073,0.7078,0,0,0,0,0,0,0.6241,0.6329,0.6338,0.6429,0.6487,0.6565,0.6608,0.6621,0.6685,0.6683,0.6729,0.6748,0.6832,0.6872,0.6838,0.6979,0.6962,0.6971,0.695,0.6956,0.6961,0.695,0.6842,0,0,0,0,0,0.6249,0.6311,0.6385,0.6458,0.6486,0.6542,0.6581,0.6606,0.6668,0.6693,0.6746,0.6807,0.6874,0.6917,0.6983,0.7074,0.7092,0.7111,0.7116,0.712,0.7127,0.7177,0.7186,0.709,0.709,0.709,0,0,0.6265,0.6321,0.6358,0.6457,0.6505,0.6568,0.6563,0.6631,0.6679,0.6704,0.6789,0.6829,0.6901,0.6989,0.7031,0.7025,0.7157,0.7125,0.7128,0.7134,0.7182,0.7191,0.7199,0.7094,0.7093,0.7093,0,0,0.6328,0.6376,0.6442,0.649,0.6562,0.6598,0.6613,0.669,0.6717,0.6802,0.6822,0.688,0.6995,0.7044,0.7084,0.7163,0.7176,0.7184,0.7209,0.7257,0.7264,0.7271,0.7298,0.7307,0.7191,0.7191,0.7191,0,0.634,0.6436,0.6474,0.6541,0.6584,0.6608,0.6674,0.6719,0.6809,0.6838,0.6829,0.6973,0.7023,0.7123,0.7141,0.7174,0.7193,0.7175,0.726,0.7267,0.7274,0.73,0.7311,0.7191,0.7191,0.7191,0.7191,0,0.6447,0.6513,0.6558,0.6642,0.669,0.6756,0.6804,0.6848,0.6868,0.6905,0.6991,0.7051,0.7129,0.7154,0.7175,0.7257,0.7251,0.725,0.7235,0.7283,0.7308,0.7319,0.7192,0.7192,0.7192,0.7192,0,0,0.6506,0.6609,0.6625,0.6663,0.6743,0.6796,0.6863,0.6937,0.6974,0.7035,0.7092,0.7187,0.7187,0.7232,0.7259,0.7301,0.7358,0.7295,0.7298,0.7304,0.745,0.745,0.7461,0.7366,0.7368,0.737,0.7444,0,0.6578,0.6697,0.6733,0.6834,0.6895,0.6918,0.6976,0.7032,0.7068,0.7126,0.7166,0.7232,0.7227,0.7254,0.7297,0.7342,0.7388,0.7337,0.742,0.7422,0.7401,0.7474,0.7474,0.7541,0.7454,0.7456,0.7457,0,0.6678,0.6738,0.6845,0.6916,0.6943,0.6994,0.7065,0.712,0.7183,0.7206,0.7255,0.7278,0.7348,0.7328,0.7426,0.7391,0.7427,0.7454,0.7457,0.7466,0.7443,0.7485,0.7564,0.7573,0.7474,0.7472,0.7471,0,0.6709,0.6818,0.6895,0.6927,0.7012,0.7047,0.7085,0.7146,0.7188,0.725,0.7277,0.7346,0.7384,0.7438,0.7478,0.746,0.7572,0.7556,0.7593,0.7592,0.7616,0.7614,0.7701,0.764,0.764,0.7639,0.7639,0,0.6785,0.6849,0.691,0.6957,0.7029,0.707,0.714,0.7178,0.7232,0.7288,0.7312,0.7364,0.7414,0.7472,0.7504,0.7579,0.7597,0.7617,0.7625,0.7615,0.7612,0.7639,0.7635,0.7642,0.7642,0.7641,0.7641,0,0.6832,0.6876,0.6961,0.7034,0.7054,0.7103,0.7166,0.7213,0.7249,0.7318,0.7337,0.7394,0.7464,0.7509,0.7598,0.762,0.7702,0.7709,0.768,0.7683,0.7718,0.7714,0.7825,0.7842,0.777,0.777,0.7771,0,0.6877,0.6927,0.7004,0.7042,0.7079,0.7141,0.7183,0.7224,0.7267,0.7342,0.7379,0.745,0.7509,0.7619,0.7669,0.7737,0.7745,0.7779,0.7755,0.7743,0.7744,0.774,0.7745,0.7783,0.7784,0.7784,0.7784,0,0.6952,0.6971,0.7031,0.7098,0.7147,0.7202,0.7257,0.7287,0.7338,0.7385,0.7455,0.75,0.759,0.766,0.7732,0.7771,0.7786,0.7791,0.7803,0.7793,0.7774,0.7784,0.769,0.7789,0.7788,0.7788,0.7788,0.7788,0.7,0.7044,0.7105,0.717,0.7215,0.7266,0.7313,0.7354,0.7413,0.7489,0.751,0.7583,0.7644,0.7742,0.7781,0.7839,0.7835,0.7853,0.7858,0.7861,0.7861,0.7765,0.7853,0.7853,0.7853,0.7853,0.7853,0,0.7075,0.7115,0.7175,0.725,0.7301,0.7309,0.737,0.7413,0.7476,0.7531,0.7588,0.7668,0.7735,0.779,0.7859,0.7895,0.7903,0.7911,0.7909,0.7917,0.7861,0.7843,0.7903,0.7903,0.7903,0.7903,0.7903,0.7903,0.712,0.7195,0.7221,0.7318,0.7358,0.7429,0.7463,0.7509,0.7553,0.7641,0.7697,0.7731,0.7786,0.7859,0.792,0.7935,0.7959,0.7965,0.7981,0.7927,0.7922,0.7916,0.79,0.797,0.797,0.8032,0.8033,0.8033]},{"header":{"parameterUnit":"m.s-1","parameterCategory":1,"la1":30.2991,"la2":30.254,"lo1":-89.0895,"lo2":-89.0444,"dy":0.0017,"dx":0.0017,"nx":28,"ny":28,"refTime":"2023-08-04T09:00:00:Z","depth":0,"parameterNumber":3,"parameterNumberName":"V-component_of_WINDS"},"data":[0,0,0,0,0,0,0,0,0,0,0,0,0,0,0,0,0,0,0,0,0,0,0,0,0,0,0,0,0,0,0,0,0,0,0,0,0,0,0,0,0,0,0,0,0,0,0,0,0,0,0,0,0,0,0,0,0,0,4.4613,4.4612,0,4.4582,4.4581,4.4581,4.4553,4.4553,4.4552,4.4552,4.4518,4.4517,4.4516,0,0,0,0,0,0,0,0,0,0,0,0,0,4.4642,4.4641,4.4613,4.4612,4.4612,4.4582,4.4581,4.4581,4.4553,4.4553,4.4552,4.4552,4.4518,4.4517,4.4516,0,0,0,0,0,0,0,0,0,0,0,0,0,4.4622,4.4641,4.4613,4.4594,4.4592,4.4582,4.4581,4.4581,4.4553,4.4553,4.4552,4.4552,4.4518,4.4517,4.4516,4.4521,0,0,4.4513,4.4513,0,0,0,0,0,0,0,0,4.4623,4.4621,4.4597,4.4596,4.4593,4.4571,4.4579,4.4561,4.4553,4.4568,4.4552,4.4551,4.4535,4.4533,4.4528,4.4519,4.4518,4.4513,4.4513,4.4512,4.4512,0,0,0,0,0,0,0,4.4624,4.4622,4.46,4.4597,4.4595,4.4586,4.4582,4.4575,4.4555,4.4567,4.4564,4.4561,4.4534,4.4529,4.4527,4.4517,4.4513,4.4513,4.4512,4.4512,4.4505,4.4505,0,0,0,0,0,0,4.4629,4.4623,4.4601,4.4599,4.4607,4.4586,4.4582,4.4578,4.4555,4.4551,4.4562,4.456,4.4531,4.4528,4.4526,4.4527,4.4512,4.4512,4.4511,4.4505,4.4505,4.4506,0,0,0,0,0,0,4.463,4.4628,4.4603,4.4611,4.4607,4.4586,4.4582,4.4578,4.4573,4.4551,4.4547,4.4561,4.4531,4.4527,4.4521,4.4525,4.4511,4.451,4.4504,4.4505,4.4505,4.4531,0,0,0,0,0,0,4.4631,4.4628,4.4631,4.4611,4.4607,4.46,4.4582,4.4578,4.4572,4.457,4.4549,4.4545,4.453,4.4523,4.452,4.4524,4.451,4.4504,4.4505,4.4505,4.4529,4.4532,4.4534,0,0,0,0,0,4.4632,4.4639,4.4631,4.4629,4.461,4.4601,4.4598,4.4581,4.4573,4.4574,4.4559,4.4546,4.4525,4.4523,4.452,4.4523,4.4503,4.4504,4.4505,4.4528,4.4531,4.4534,0,0,0,0,0,0,4.466,4.4637,4.4627,4.4629,4.4617,4.4596,4.4598,4.4585,4.4575,4.4573,4.4551,4.4547,4.4542,4.4532,4.4529,4.4523,4.4512,4.4513,4.4531,4.4534,4.4536,4.4538,4.4509,0,0,0,0,0,4.4667,4.4663,4.4642,4.4645,4.4639,4.4619,4.4615,4.4602,4.4589,4.4583,4.4568,4.4555,4.4544,4.4539,4.4528,4.4527,4.4521,4.4528,4.453,4.4532,4.4532,4.4528,4.453,4.4508,4.4508,4.4508,0,0,4.468,4.4667,4.4665,4.465,4.4639,4.4633,4.4616,4.4611,4.4605,4.4582,4.4576,4.4564,4.4546,4.4542,4.4539,4.4533,4.4537,4.4533,4.4535,4.4534,4.4529,4.4531,4.4533,4.4509,4.4509,4.4509,0,0,4.4701,4.4691,4.4691,4.4681,4.4664,4.4651,4.4651,4.4631,4.4622,4.4615,4.4597,4.4589,4.4573,4.4561,4.4552,4.4564,4.455,4.4561,4.4574,4.457,4.4571,4.4573,4.4575,4.4576,4.4562,4.4562,4.4562,0,4.4719,4.4711,4.4693,4.4688,4.4681,4.466,4.4658,4.4648,4.4629,4.4623,4.4617,4.4594,4.4581,4.4572,4.4575,4.4569,4.4566,4.4564,4.4573,4.4574,4.4575,4.4576,4.4578,4.4563,4.4563,4.4563,4.4563,0,4.4732,4.4726,4.4728,4.471,4.4703,4.47,4.4679,4.4674,4.4661,4.4647,4.4638,4.4622,4.4606,4.4603,4.4591,4.4591,4.4587,4.4577,4.4565,4.4578,4.4579,4.458,4.4565,4.4565,4.4564,4.4564,0,0,4.4771,4.4742,4.4742,4.4733,4.4712,4.4706,4.4701,4.4686,4.468,4.4667,4.466,4.4645,4.4635,4.4625,4.4611,4.4607,4.4614,4.4597,4.4596,4.4599,4.461,4.4617,4.4619,4.4605,4.4605,4.4605,4.4611,0,4.4787,4.4777,4.476,4.4755,4.4747,4.4726,4.472,4.4706,4.4692,4.4682,4.4666,4.4655,4.4643,4.4637,4.4632,4.4615,4.4616,4.4614,4.4596,4.4596,4.4601,4.462,4.4628,4.4634,4.4612,4.4612,4.4612,0,4.4804,4.4792,4.4787,4.4764,4.476,4.4756,4.4739,4.4731,4.4712,4.4702,4.469,4.4674,4.4664,4.4654,4.4638,4.4637,4.4629,4.4619,4.4618,4.4615,4.4604,4.4616,4.4636,4.4637,4.4613,4.4612,4.4612,0,4.483,4.4812,4.4806,4.4799,4.4772,4.4769,4.4758,4.4739,4.4731,4.4715,4.4709,4.4693,4.4683,4.467,4.4649,4.4644,4.4635,4.4623,4.4624,4.4625,4.4623,4.4624,4.4641,4.462,4.462,4.462,4.462,0,4.4849,4.4846,4.4817,4.4813,4.4808,4.4786,4.4781,4.4767,4.475,4.4742,4.4722,4.4713,4.4687,4.4674,4.4658,4.4646,4.4642,4.4632,4.4628,4.4634,4.4635,4.4627,4.4626,4.462,4.462,4.462,4.462,0,4.4877,4.4858,4.4849,4.4824,4.4818,4.4815,4.4793,4.4787,4.4771,4.476,4.4756,4.4731,4.4715,4.4693,4.467,4.4659,4.4649,4.4642,4.4655,4.4652,4.4654,4.4654,4.4667,4.4666,4.4646,4.4647,4.4647,0,4.4889,4.4886,4.4861,4.4854,4.4843,4.4833,4.4823,4.4801,4.4792,4.4769,4.4765,4.4748,4.4733,4.4708,4.4687,4.4669,4.4661,4.4666,4.4658,4.4663,4.4658,4.4659,4.4657,4.4668,4.4669,4.4669,4.4669,0,4.4913,4.4903,4.4891,4.4875,4.4865,4.4851,4.4836,4.4831,4.4805,4.4795,4.4779,4.4767,4.4744,4.4726,4.4704,4.469,4.4674,4.4672,4.4671,4.4677,4.4684,4.4678,4.466,4.4672,4.4671,4.4671,4.4671,4.4671,4.4932,4.4927,4.4908,4.4895,4.4881,4.4867,4.4859,4.4842,4.4829,4.4809,4.4796,4.478,4.4758,4.4728,4.4714,4.47,4.4693,4.4692,4.4692,4.4692,4.4693,4.4686,4.4696,4.4696,4.4695,4.4695,4.4695,0,4.4953,4.4939,4.4927,4.4906,4.4895,4.4882,4.4864,4.4855,4.4842,4.4824,4.4809,4.4789,4.4771,4.4747,4.4727,4.472,4.4712,4.4715,4.4715,4.4711,4.4701,4.4703,4.4722,4.4722,4.4722,4.4722,4.4722,4.4722,4.4962,4.4953,4.494,4.4923,4.4908,4.4893,4.4884,4.487,4.4855,4.4834,4.4819,4.4804,4.4783,4.4761,4.4743,4.4736,4.4728,4.4734,4.4725,4.4715,4.4713,4.471,4.4712,4.4733,4.4733,4.4736,4.4736,4.4736]}]]